FW3268 Weather Reports


Display with metric or nautical units.
time (UTC)temp
F
wind
direction
speed
MPH
gust
MPH
rain 1hr
in
rain 24hr
in
rain mn
in
humidity
%
barometer
mb
20260906223002 75 63 0.0 0.0 0.00 0.00 0.00 65 1017.2
20260906221501 76 87 0.0 0.0 0.00 0.00 0.00 66 1017.3
20260906220004 76 53 0.0 0.0 0.00 0.00 0.00 65 1017.3
20260906214500 76 98 0.0 0.0 0.00 0.00 0.00 66 1017.4
20260906213001 76 58 0.0 0.0 0.00 0.00 0.00 64 1017.3
20260906211501 77 60 0.0 0.0 0.00 0.00 0.00 59 1017.3
20260906210004 77 58 0.0 0.0 0.00 0.00 0.00 58 1017.3
20260906204501 77 52 0.0 0.0 0.00 0.00 0.00 61 1017.4
20260906203004 77 56 0.0 0.0 0.00 0.00 0.00 60 1017.4
20260906201500 77 64 0.0 0.0 0.00 0.00 0.00 60 1017.3
20260906200004 77 65 0.0 0.0 0.00 0.00 0.00 61 1017.4
20260906191501 77 38 0.0 0.0 0.00 0.00 0.00 60 1017.6
20260906190004 77 59 0.0 0.0 0.00 0.00 0.00 60 1017.4
20260906184501 77 32 0.0 0.0 0.00 0.00 0.00 62 1017.6
20260906183000 77 37 0.0 0.0 0.00 0.00 0.00 62 1017.6
20260906181501 77 320 0.0 0.0 0.00 0.00 0.00 62 1017.6
20260906174501 77 39 0.0 0.0 0.00 0.00 0.00 60 1017.8
20260906173000 76 33 0.0 0.0 0.00 0.00 0.00 58 1017.8
20260906171501 76 57 0.0 0.0 0.00 0.00 0.00 64 1018.1
20260906170004 75 33 0.0 0.0 0.00 0.00 0.00 65 1018.2
20260906164501 75 30 0.0 0.0 0.00 0.00 0.00 66 1018.3
20260906163000 74 41 0.0 0.0 0.00 0.00 0.00 69 1018.3
20260906161501 75 56 0.0 0.0 0.00 0.00 0.00 71 1018.5
20260906160004 74 56 0.0 0.0 0.00 0.00 0.00 71 1018.4
20260906154459 74 50 0.0 0.0 0.00 0.00 0.00 72 1018.4
20260906152959 73 47 0.0 0.0 0.00 0.00 0.00 69 1018.1
20260906151500 72 59 0.0 0.0 0.00 0.00 0.00 74 1018.0
20260906150004 71 56 0.0 0.0 0.00 0.00 0.00 76 1018.3
20260906144500 70 56 0.0 0.0 0.00 0.00 0.00 77 1018.4
20260906143000 69 40 0.0 0.0 0.00 0.00 0.00 80 1018.5
20260906141500 68 68 0.0 0.0 0.00 0.00 0.00 81 1018.4
20260906140003 68 51 0.0 0.0 0.00 0.00 0.00 83 1018.3
20260906134459 67 63 0.0 0.0 0.00 0.00 0.00 85 1018.3
20260906133001 66 54 0.0 0.0 0.00 0.00 0.00 86 1018.3
20260906131459 66 43 0.0 0.0 0.00 0.00 0.00 88 1018.2
20260906130002 65 55 0.0 0.0 0.00 0.00 0.00 89 1018.3
20260906124459 64 51 0.0 0.0 0.00 0.00 0.00 91 1017.9
20260906123000 64 41 0.0 0.0 0.00 0.00 0.00 92 1017.9
20260906121459 63 53 0.0 0.0 0.00 0.00 0.00 94 1017.8
20260906120002 63 52 0.0 0.0 0.00 0.00 0.00 94 1017.6
20260906114500 62 53 0.0 0.0 0.00 0.00 0.00 93 1017.2
20260906113000 62 51 0.0 0.0 0.00 0.00 0.00 93 1016.9
20260906111459 63 51 0.0 0.0 0.00 0.00 0.00 93 1016.6
20260906110003 63 51 0.0 0.0 0.00 0.00 0.00 93 1016.4
20260906104500 64 51 0.0 0.0 0.00 0.00 0.00 92 1016.5
20260906101500 64 53 0.0 0.0 0.00 0.00 0.00 92 1016.1
20260906100002 64 53 0.0 0.0 0.00 0.00 0.00 93 1016.0
20260906094500 65 53 0.0 0.0 0.00 0.00 0.00 92 1015.9
20260906093000 65 58 0.0 0.0 0.00 0.00 0.00 92 1015.8
20260906091459 65 58 0.0 0.0 0.00 0.00 0.00 91 1015.8
20260906090002 65 63 0.0 0.0 0.00 0.00 0.00 91 1015.7
20260906084459 65 60 0.0 0.0 0.00 0.00 0.00 91 1015.9
20260906081459 66 55 0.0 0.0 0.00 0.00 0.00 92 1015.5
20260906080003 66 56 0.0 0.0 0.00 0.00 0.00 92 1015.5
20260906073000 66 53 0.0 0.0 0.00 0.00 0.00 93 1015.5
20260906064459 66 55 0.0 0.0 0.00 0.00 0.00 93 1015.6
20260906063000 67 52 0.0 0.0 0.00 0.00 0.00 92 1015.7
20260906061459 68 51 0.0 0.0 0.00 0.00 0.00 91 1015.6
20260906060003 68 53 0.0 0.0 0.00 0.00 0.00 92 1015.3
20260906054500 68 65 0.0 0.0 0.00 0.00 0.00 93 1015.2
20260906053000 68 56 0.0 0.0 0.00 0.00 0.00 93 1015.3
20260906051459 69 56 0.0 0.0 0.00 0.00 0.00 93 1015.2
20260906050004 69 56 0.0 0.0 0.00 0.00 0.00 93 1015.2
20260906044501 70 56 0.0 0.0 0.00 0.00 0.00 93 1014.9
20260906043001 70 56 0.0 0.0 0.00 0.00 0.00 93 1014.8
20260906041501 71 60 0.0 0.0 0.00 0.00 0.00 93 1014.8
20260906040006 71 52 0.0 0.0 0.00 0.00 0.00 92 1014.8
20260906034501 72 59 0.0 0.0 0.00 0.00 0.00 92 1015.0
20260906033002 72 78 0.0 0.0 0.00 0.00 0.00 92 1014.9
20260906031502 73 49 0.0 0.0 0.00 0.00 0.00 92 1015.0
20260906030004 73 68 0.0 0.0 0.00 0.00 0.00 91 1014.5
20260906024501 73 64 0.0 0.0 0.00 0.00 0.00 91 1014.5
20260906023002 74 60 0.0 0.0 0.00 0.00 0.00 92 1014.2
20260906021502 74 73 0.0 0.0 0.00 0.00 0.00 93 1014.1
20260906020005 74 69 0.0 0.0 0.00 0.00 0.00 94 1014.1
20260906013001 75 72 0.0 0.0 0.00 0.00 0.00 93 1013.5
20260906011501 75 51 0.0 0.0 0.00 0.00 0.00 92 1013.1
20260906010005 76 63 0.0 0.0 0.00 0.00 0.00 90 1012.9
20260906004502 77 49 0.0 0.0 0.00 0.00 0.00 88 1012.7
20260906003002 79 41 0.0 0.0 0.00 0.00 0.00 89 1012.7
20260906001501 79 122 0.0 0.0 0.00 0.00 0.00 88 1012.2
20260905234507 80 125 0.0 0.0 0.00 0.00 0.00 84 1012.5
20260905231501 82 124 0.0 0.0 0.00 0.00 0.00 80 1012.3
20260905230003 83 124 0.0 0.0 0.00 0.00 0.00 80 1012.1
20260905224502 83 130 0.0 0.0 0.00 0.00 0.00 77 1012.1